Погода Нижний Новгород

Хотите узнать прогноз погоды в Нижнем Новгороде? Тогда Вам сюда: Погода в Нижнем Новгороде

Поиск расширенной информации на нашем сайте:

Полезная информация:

Новости сайта



02.01.2020
Опубликован Долгосрочный прогноз погоды по городам России и ближнего зарубежья на январь 2020 года.
Карты: Прогноз на январь и февраль 2020 года, Сравнение прогнозируемой аномалии приземной температуры воздуха на январь 2020 года по разным моделям.




Погода Нижний Новгород - сегодня

Время (UTC), дата Ветер
(°,м/с) 
Видим.   Явления Облачность Т
(°С)
Тd
(°С)
f(%) Тe
(°С)
Pmin
(гПа)
dP
(гПа)
Po
(мм)
O2
(г/м3)
Тmin Tmax R s Состояние
почвы
15 16.04.21 070 (В) 3-6{10}  10 км    10/0 средняя, верхняя 
[Ac cast|Ci]
+13.3 -2.6 33 +13  1023.4  753  290    +15.1       
18 16.04.21 070 (В) 4-8{09}  10 км    3/0 средняя 
[Ac trans]
+9.8 -6.9 30 +9  1024.5  0.9  754  294           
21 16.04.21 080 (В) 3-6{09}  10 км    3/0 средняя 
[Ac trans]
+7.8 -7.7 32 +7  1025.6  0.9  755  296           
00 17.04.21 070 (В) 4-8{08}  10 км    4/0 средняя 
[Ac trans]
+6.1 -9.1 33 +5  1025.7  755  298           
03 17.04.21 080 (В) 4-8{09}  10 км    3/0 средняя 
[Ac trans]
+4.8 -9.2 35 +3  1026  0.2  755  300  +4.8         
06 17.04.21 080 (В) 5-10{10}  10 км    3/0 верхняя 
[Ci fib]
+9.8 -9.2 25 +9  1026.2  0.5  755  295           
09 17.04.21 090 (В) 4-8{11}  10 км    ясно 
+13.5 -12.3 15 +13  1025.6  -0.3  755  291           
12 17.04.21 070 (В) 4-7{09}  10 км    ясно 
+15.4 -10.9 15 +15  1024.5  -1  754  289           
15 17.04.21 070 (В) 3-6{09}  10 км    ясно 
+13.9 -9.3 19 +14  1023.1  -1.4  753  290    +15.6       
18 17.04.21 070 (В) 3-6{06}  10 км    ясно 
+10 -8.9 25 +10  1023.8  0.4  753  294           
21 17.04.21 080 (В) 3-7{07}  10 км    ясно 
+7.6 -8.6 31 +7  1023.6  -0.4  753  296           
00 18.04.21 090 (В) 2-5{07}  н/о    н/о 
+5.3 -8.1 37 +5  1023.7  753  299           
03 18.04.21 090 (В) 3-5{06}  10 км    ясно 
+5.3 -8.2 37 +4  1023.2  -0.5  753  298  +4.1         
06 18.04.21 080 (В) 2-5{08}  10 км    ясно 
+10.5 -7.6 27 +11  1022.8  -0.1  753  293           
09 18.04.21 090 (В) 3-7{09}  10 км    ясно 
+14 -8.3 20 +14  1022.3  -0.2  753  289           
12 18.04.21 090 (В) 2-5{08}  10 км    ясно 
+15.5 -7.6 20 +16  1021.9  -0.3  752  288           
15 18.04.21 070 (В) 3-6{08}  10 км    3/0 верхняя 
[Ci fib]
+14.3 -7.2 22 +14  1021.8  -0.2  752  289    +15.8       
18 18.04.21 070 (В) 3-8{10}  10 км    ясно 
+10 -3.4 39 +10  1023.5  1.4  753  293           
21 18.04.21 080 (В) 5-9{11}  10 км    ясно 
+6 -4.4 47 +4  1025.3  1.5  754  298           
00 19.04.21 080 (В) 4-7{10}  10 км    ясно 
+3.6 -8.2 42 +2  1025.7  0.2  755  301           
03 19.04.21 080 (В) 4-9{10}  10 км    8/0 средняя, верхняя 
[Ac As|Ci fib]
+2.5 -7.9 46 1026.3  0.5  755  302  +2.4         
06 19.04.21 070 (В) 5-9{10}  10 км    9/3 600 м средняя, верхняя 
[Sc|Ac trans|Ci fib]
+5.1 -7.4 40 +3  1026.8  0.7  755  300           
09 19.04.21 090 (В) 4-10{11}  10 км    10/0 верхняя 
[Cc]
+8.7 -9.3 27 +8  1027.1  0.5  756  296           
12 19.04.21 090 (В) 5-11{11}  10 км    10/0 верхняя 
[Cc]
+8.8 -12 22 +7  1026.8  -0.2  756  296           
15 19.04.21 070 (В) 3-11{12}  10 км    10/0 верхняя 
[Cs]
+7.5 -12.2 23 +7  1027.1  0.2  756  297    +12.2       
Время (UTC), дата Ветер
(°,м/с) 
Видим.   Явления Облачность Т
(°С)
Тd
(°С)
f(%) Тe
(°С)
Pmin
(гПа)
dP
(гПа)
Po
(мм)
O2
(г/м3)
Тmin Tmax R s Состояние
почвы

Для получения пояснительной информации подведите курсор к названию столбца.

ПОГОДА Нижний Новгород - архив

Всё, что Вы хотите узнать о погоде Нижний Новгород - удобно и подробно!

Выберите нужную дату (начиная с 1 января 2019* года) и нажмите кнопку "Найти".
Будут отображены архивные сводки погоды по пункту Нижний Новгород, начиная с указанной даты.


Отображать данные в формате CSV (для использования в таблицах Excel)


Внимание! Наш архив погоды предназначен исключительно для личного некоммерческого использования в познавательных целях. Если Вам необходимы официальные справки о состоянии погоды (для производственных, юридических, коммерческих и т.п. целей), обращайтесь в органы Росгидромета.

*Примечание: данная дата относится к архиву по метеостанциям СССР (Россия, СНГ, Балтия).
Архив по метеостанциям Зарубежной Европы и Азии (кроме Китая) хранится 10 дней, по другим регионам земного шара (Китай, Африка, Америка, Австралия, Океания) - 1 день.

Нижний Новгород - район местоположения метеостанции


Название, широта, долгота, высота метеостанции:
Нижний Новгород (Мыза) 56.3°ш. 44°д. 157 м над ур. моря [Российская Федерация]

Дополнительная информация

В oтличие oт бoльшинства пoгoдных сайтoв мы публикуем пoдрoбную метеoинфoрмацию в детальнoм прoфессиoнальнoм фoрмате.

Характеристики температуры и влажнoсти вoздуха измеряются на высoте 2 м в тени вдали oт зданий и деревьев.
Скoрoсть ветра измеряется на высoте 10 м (на урoвне рoста челoвека скoрoсть ветра ниже в 1.5-2 раза). Если метеoстанция нахoдится в гoрoде или в лесу, тo скoрoсть ветра занижена на 2-4 м/с пo сравнению с oткрытым местoм. Скoрoсть ветра над акватoриями крупных рек и oзёр, а также на вершинах хoлмoв на 2-5 м/с выше, чем в oбычных услoвиях.
Атмoсфернoе давление в разных тoчках местнoсти мoжет значительнo oтличаться oт давления на метеoстанции, в зависимoсти oт услoвий рельефа (при пoдъёме на 10 м давление пoнижается примернo на 1 мм рт.ст.).